Content
SEND FEEDBACK

Daily
Averages
Monthly
Summary
United States of America

VENUS, TEXAS


Home > North America > United States > Texas
Elevation: 660 feet     Latitude: 32 26N     Longitude: 097 06W

WEATHER
 
SELECT A DAY
Number of Records: 263,530;   Date Range: 7/10/03 - 9/30/14
 
SHARE

PRINT THIS DATA

[ ← Previous Day ]
WEATHER ALMANAC - JANUARY 19, 2013
[ Next Day → ]
[ °C ]   °F
Weather ElementAverageHighLow
Temperature48.2 °F60.8 °F (12:55 pm)35.6 °F (7:15 am)
Dewpoint39.3 °F42.8 °F (9:55 am)32 °F (12:35 am)
Humidity73.4 %100 % (7:15 am)48 % (2:35 pm)
Barometer30.23 in30.29 in (9:55 am)30.16 in (2:35 pm)
Wind Speed7.1 mph18.4 mph (12:35 pm)
Wind Gust25.3 mph (12:15 pm)
Weather ElementAverage
Visibility9.4 mi
Wind DirectionSSE (149.7 °)

Weather ElementTotal
Precipitation---
Heating Degree Days16.8 (Base 65)
Averaged from 62 records on January 19, 2013
WEATHER CONDITIONS BREAKOUT
WIND DIRECTION BREAKOUT
WEATHER BY HOUR - JANUARY 19, 2013
[ °C ]   °F
Local TimeTemperatureDewpointHumidityBarometerVisibilityWind DirectionWind SpeedGust SpeedPrecipitationEventsConditions
12:35 AM41.0 °F32.0 °F70 %30.28 in10.0 miSE (140°)4.6 mphClear
12:55 AM41.0 °F32.0 °F70 %30.28 in10.0 miSSE (160°)6.9 mphClear
1:15 AM41.0 °F32.0 °F70 %30.28 in10.0 miSouth (170°)6.9 mphClear
1:35 AM41.0 °F32.0 °F70 %30.28 in10.0 miSSE (160°)8.1 mphClear
1:55 AM41.0 °F32.0 °F70 %30.28 in10.0 miSSE (160°)6.9 mphClear
2:15 AM41.0 °F33.8 °F76 %30.28 in10.0 miSSE (160°)5.8 mphClear
2:35 AM41.0 °F33.8 °F76 %30.28 in10.0 miSouth (170°)6.9 mphClear
2:55 AM41.0 °F33.8 °F76 %30.28 in10.0 miSouth (170°)4.6 mphClear
3:15 AM41.0 °F33.8 °F76 %30.27 in10.0 miSSE (160°)4.6 mphClear
3:35 AM41.0 °F33.8 °F76 %30.27 in10.0 miSSE (160°)3.5 mphClear
3:55 AM39.2 °F33.8 °F81 %30.27 in10.0 miSSE (160°)4.6 mphClear
4:15 AM39.2 °F33.8 °F81 %30.26 in10.0 miSouth (170°)6.9 mphClear
4:35 AM37.4 °F33.8 °F87 %30.26 in10.0 miSouth (170°)6.9 mphClear
4:55 AM37.4 °F35.6 °F93 %30.26 in10.0 miSouth (170°)8.1 mphClear
5:15 AM37.4 °F35.6 °F93 %30.26 in10.0 miSouth (170°)6.9 mphClear
5:35 AM37.4 °F35.6 °F93 %30.25 in10.0 miSouth (170°)6.9 mphClear
5:55 AM37.4 °F35.6 °F93 %30.25 in10.0 miSouth (180°)8.1 mphClear
7:15 AM35.6 °F35.6 °F100 %30.25 in7.0 miSSE (160°)6.9 mphClear
7:55 AM35.6 °F35.6 °F100 %30.26 in4.0 miSSE (160°)8.1 mphClear
8:01 AM37.4 °F37.4 °F100 %30.26 in4.0 miSSE (160°)8.1 mphClear
8:15 AM37.4 °F37.4 °F100 %30.27 in4.0 miSSE (160°)6.9 mphClear
8:35 AM39.2 °F37.4 °F93 %30.27 in7.0 miSouth (170°)8.1 mphClear
8:55 AM41.0 °F39.2 °F93 %30.28 in5.0 miSouth (170°)6.9 mphClear
9:35 AM44.6 °F41.0 °F87 %30.28 in7.0 miSouth (180°)9.2 mphClear
9:55 AM48.2 °F42.8 °F82 %30.29 in7.0 miSouth (170°)6.9 mphClear
10:15 AM50.0 °F42.8 °F76 %30.29 in10.0 miSSE (160°)9.2 mphClear
10:35 AM53.6 °F42.8 °F67 %30.29 in10.0 miSSW (200°)17.3 mph21.9 mphClear
11:15 AM55.4 °F42.8 °F63 %30.28 in10.0 miSouth (180°)15.0 mphClear
12:15 PM59.0 °F42.8 °F55 %30.23 in10.0 miSSW (200°)17.3 mph25.3 mphClear
12:35 PM59.0 °F42.8 °F55 %30.22 in10.0 miSouth (190°)18.4 mph21.9 mphClear
12:55 PM60.8 °F42.8 °F52 %30.20 in10.0 miSSW (200°)17.3 mphClear
1:15 PM60.8 °F42.8 °F52 %30.19 in10.0 miSouth (180°)16.1 mph19.6 mphClear
1:55 PM60.8 °F42.8 °F52 %30.18 in10.0 miSouth (180°)16.1 mph21.9 mphClear
2:35 PM60.8 °F41.0 °F48 %30.16 in10.0 miSouth (190°)12.7 mphClear
2:55 PM60.8 °F41.0 °F48 %30.17 in10.0 miSSW (210°)10.4 mph17.3 mphClear
3:15 PM60.8 °F42.8 °F52 %30.17 in10.0 miSouth (190°)11.5 mphClear
3:35 PM60.8 °F42.8 °F52 %30.17 in10.0 miSSW (210°)11.5 mphClear
3:55 PM60.8 °F42.8 °F52 %30.17 in10.0 miSouth (180°)9.2 mphClear
4:15 PM60.8 °F42.8 °F52 %30.17 in10.0 miSouth (170°)9.2 mphClear
4:35 PM60.8 °F42.8 °F52 %30.17 in10.0 miSouth (170°)8.1 mphClear
4:55 PM60.8 °F42.8 °F52 %30.17 in10.0 miSouth (170°)6.9 mphClear
5:15 PM59.0 °F42.8 °F55 %30.17 in10.0 miSSE (160°)6.9 mphClear
5:35 PM57.2 °F42.8 °F59 %30.18 in10.0 miSE (140°)4.6 mphClear
5:55 PM55.4 °F42.8 °F63 %30.18 in10.0 miSSE (150°)4.6 mphClear
6:15 PM53.6 °F42.8 °F67 %30.18 in10.0 miSSE (160°)5.8 mphClear
6:35 PM53.6 °F42.8 °F67 %30.18 in10.0 miSE (130°)3.5 mphClear
6:55 PM53.6 °F42.8 °F67 %30.18 in10.0 miSSE (150°)3.5 mphClear
7:15 PM51.8 °F42.8 °F71 %30.18 in10.0 miSE (130°)3.5 mphClear
7:35 PM50.0 °F41.0 °F71 %30.20 in10.0 miCalmClear
7:55 PM51.8 °F42.8 °F71 %30.20 in10.0 miEast (90°)3.5 mphClear
8:15 PM50.0 °F41.0 °F71 %30.21 in10.0 miEast (100°)3.5 mphClear
8:35 PM50.0 °F41.0 °F71 %30.22 in10.0 miCalmClear
8:55 PM50.0 °F42.8 °F76 %30.22 in10.0 miSE (130°)3.5 mphClear
9:15 PM48.2 °F41.0 °F76 %30.21 in10.0 miSE (130°)3.5 mphClear
9:35 PM46.4 °F41.0 °F81 %30.22 in10.0 miSE (140°)3.5 mphClear
9:55 PM44.6 °F41.0 °F87 %30.23 in10.0 miESE (120°)3.5 mphClear
10:15 PM46.4 °F41.0 °F81 %30.23 in10.0 miESE (120°)3.5 mphClear
10:35 PM46.4 °F41.0 °F81 %30.23 in10.0 miCalmClear
10:55 PM44.6 °F41.0 °F87 %30.24 in10.0 miCalmClear
11:15 PM44.6 °F41.0 °F87 %30.24 in10.0 miCalmClear
11:35 PM44.6 °F41.0 °F87 %30.24 in7.0 miSouth (170°)4.6 mphClear
11:55 PM44.6 °F41.0 °F87 %30.23 in10.0 miSSE (150°)3.5 mphClear
Hourly data recorded from KJWY, located miles away from Venus, Texas







STORIES FROM OUR PARTNERS